Location: Newport
(44.6370°N, 124.0520°W)
Time: 03:39:38
(UTC-07:00)

OTV 5 (USA 277) - Pass Details

Date: 09 October 2017
Orbit: 404 x 417 km, 43.0° (Epoch: 07 September)

Event Time Altitude Azimuth Distance (km) Brightness Sun altitude
Rises 20:39:16 0° 234° (SW) 2,347 ? -21.7°
Reaches altitude 10° 20:41:29 10° 224° (SW) 1,486 ? -22.1°
Enters shadow 20:42:53 20° 208° (SSW) 1,019 ? -22.3°
